Hourly Weather Bolshie Ozeranki

Today, 20 June, Sunday

Time Temperature Precipitation Wind Pressure Humidity
00:00 +19°C° 0 mm 2 mps 748 mmHg 86%
01:00 +19°C° 0 mm 2 mps 748 mmHg 87%
02:00 +19°C° 0 mm 2 mps 748 mmHg 88%
03:00 +19°C° 0 mm 2 mps 747 mmHg 88%
04:00 +19°C° 0 mm 2 mps 747 mmHg 88%
05:00 +19°C° 0 mm 2 mps 747 mmHg 88%
06:00 +20°C° 0.1 mm 2 mps 747 mmHg 84%
07:00 +22°C° 0.1 mm 3 mps 747 mmHg 80%
08:00 +25°C° 0.1 mm 3 mps 747 mmHg 76%
09:00 +26°C° 0 mm 4 mps 747 mmHg 72%
10:00 +27°C° 0 mm 4 mps 747 mmHg 67%
11:00 +28°C° 0 mm 5 mps 747 mmHg 63%
12:00 +29°C° 0 mm 5 mps 747 mmHg 60%
13:00 +30°C° 0 mm 5 mps 747 mmHg 58%
14:00 +30°C° 0 mm 4 mps 746 mmHg 55%
15:00 +30°C° 0.2 mm 4 mps 746 mmHg 58%
16:00 +30°C° 0.2 mm 4 mps 746 mmHg 60%
17:00 +30°C° 0.2 mm 4 mps 745 mmHg 63%
18:00 +28°C° 0.3 mm 3 mps 745 mmHg 69%
19:00 +27°C° 0.3 mm 3 mps 745 mmHg 75%
20:00 +25°C° 0.3 mm 2 mps 745 mmHg 81%
21:00 +24°C° 0 mm 3 mps 745 mmHg 84%
22:00 +22°C° 0 mm 3 mps 745 mmHg 87%
23:00 +21°C° 0 mm 3 mps 745 mmHg 91%

Tomorrow, 21 June, Monday

Time Temperature Precipitation Wind Pressure Humidity
00:00 +20°C° 0 mm 3 mps 745 mmHg 91%
01:00 +20°C° 0 mm 3 mps 745 mmHg 92%
02:00 +19°C° 0 mm 3 mps 745 mmHg 92%
03:00 +19°C° 0 mm 3 mps 745 mmHg 93%
04:00 +19°C° 0 mm 3 mps 745 mmHg 93%
05:00 +18°C° 0 mm 3 mps 744 mmHg 94%
06:00 +20°C° 0 mm 3 mps 745 mmHg 90%
07:00 +21°C° 0 mm 4 mps 745 mmHg 86%
08:00 +22°C° 0 mm 4 mps 745 mmHg 81%
09:00 +25°C° 0 mm 4 mps 745 mmHg 74%
10:00 +26°C° 0 mm 4 mps 744 mmHg 67%
11:00 +28°C° 0 mm 5 mps 744 mmHg 60%
12:00 +28°C° 0 mm 5 mps 744 mmHg 60%
13:00 +28°C° 0 mm 5 mps 744 mmHg 60%
14:00 +28°C° 0 mm 5 mps 743 mmHg 60%
15:00 +28°C° 0.7 mm 5 mps 743 mmHg 64%
16:00 +27°C° 0.7 mm 5 mps 743 mmHg 68%
17:00 +27°C° 0.7 mm 4 mps 743 mmHg 72%
18:00 +26°C° 0.2 mm 4 mps 743 mmHg 76%
19:00 +25°C° 0.2 mm 3 mps 743 mmHg 80%
20:00 +24°C° 0.2 mm 3 mps 743 mmHg 83%
21:00 +22°C° 0 mm 3 mps 743 mmHg 85%
22:00 +21°C° 0 mm 2 mps 743 mmHg 87%
23:00 +20°C° 0 mm 2 mps 743 mmHg 89%

Day after tomorrow, 22 June, Tuesday

Time Temperature Precipitation Wind Pressure Humidity
00:00 +20°C° 0 mm 2 mps 743 mmHg 90%
01:00 +20°C° 0 mm 2 mps 743 mmHg 91%
02:00 +19°C° 0 mm 2 mps 742 mmHg 93%
03:00 +19°C° 0 mm 3 mps 743 mmHg 93%
04:00 +19°C° 0 mm 3 mps 743 mmHg 94%
05:00 +19°C° 0 mm 3 mps 743 mmHg 94%
06:00 +21°C° 0 mm 3 mps 743 mmHg 89%
07:00 +22°C° 0 mm 3 mps 743 mmHg 84%
08:00 +25°C° 0 mm 4 mps 743 mmHg 78%
09:00 +26°C° 0 mm 4 mps 743 mmHg 72%
10:00 +27°C° 0 mm 5 mps 743 mmHg 67%
11:00 +29°C° 0 mm 5 mps 744 mmHg 61%
12:00 +29°C° 0 mm 5 mps 744 mmHg 59%
13:00 +29°C° 0 mm 5 mps 743 mmHg 57%
14:00 +30°C° 0 mm 5 mps 743 mmHg 55%
15:00 +30°C° 0 mm 4 mps 743 mmHg 56%
16:00 +30°C° 0 mm 4 mps 743 mmHg 57%
17:00 +30°C° 0 mm 3 mps 743 mmHg 59%
18:00 +29°C° 0 mm 3 mps 743 mmHg 64%
19:00 +28°C° 0 mm 2 mps 743 mmHg 69%
20:00 +26°C° 0 mm 2 mps 743 mmHg 74%
21:00 +25°C° 0 mm 2 mps 744 mmHg 75%
22:00 +24°C° 0 mm 2 mps 744 mmHg 76%
23:00 +23°C° 0 mm 2 mps 744 mmHg 78%

23 June, Wednesday

Time Temperature Precipitation Wind Pressure Humidity
00:00 +23°C° 0 mm 1 mps 744 mmHg 78%
01:00 +23°C° 0 mm 1 mps 744 mmHg 78%
02:00 +23°C° 0 mm 1 mps 744 mmHg 78%
03:00 +23°C° 0 mm 1 mps 744 mmHg 79%
04:00 +23°C° 0 mm 1 mps 744 mmHg 80%
05:00 +23°C° 0 mm 1 mps 744 mmHg 81%
06:00 +25°C° 0 mm 1 mps 744 mmHg 77%
07:00 +26°C° 0 mm 2 mps 745 mmHg 73%
08:00 +28°C° 0 mm 2 mps 745 mmHg 70%
09:00 +29°C° 0.1 mm 2 mps 745 mmHg 67%
10:00 +30°C° 0.1 mm 3 mps 745 mmHg 63%
11:00 +32°C° 0.1 mm 4 mps 745 mmHg 60%
12:00 +32°C° 0.2 mm 4 mps 745 mmHg 58%
13:00 +33°C° 0.2 mm 4 mps 745 mmHg 57%
14:00 +33°C° 0.2 mm 4 mps 745 mmHg 55%
15:00 +32°C° 0.1 mm 4 mps 745 mmHg 58%
16:00 +32°C° 0.1 mm 4 mps 745 mmHg 60%
17:00 +32°C° 0.1 mm 4 mps 745 mmHg 63%
18:00 +29°C° 0.2 mm 3 mps 745 mmHg 68%
19:00 +28°C° 0.2 mm 3 mps 745 mmHg 72%
20:00 +27°C° 0.2 mm 3 mps 745 mmHg 77%
21:00 +26°C° 0.7 mm 2 mps 745 mmHg 79%
22:00 +25°C° 0.7 mm 2 mps 745 mmHg 81%
23:00 +24°C° 0.7 mm 2 mps 745 mmHg 84%

24 June, Thursday

Time Temperature Precipitation Wind Pressure Humidity
00:00 +23°C° 0.7 mm 1 mps 745 mmHg 85%
01:00 +23°C° 0.7 mm 1 mps 745 mmHg 86%
02:00 +23°C° 0.7 mm 1 mps 745 mmHg 87%
03:00 +23°C° 0.1 mm 1 mps 745 mmHg 88%
04:00 +23°C° 0.1 mm 2 mps 745 mmHg 88%
05:00 +21°C° 0.1 mm 2 mps 745 mmHg 88%
06:00 +24°C° 0.1 mm 2 mps 746 mmHg 86%
07:00 +25°C° 0.1 mm 2 mps 746 mmHg 83%
08:00 +26°C° 0.1 mm 2 mps 746 mmHg 80%
09:00 +27°C° 0.1 mm 1 mps 746 mmHg 75%
10:00 +29°C° 0.1 mm 1 mps 746 mmHg 70%
11:00 +30°C° 0.1 mm 1 mps 746 mmHg 64%
12:00 +30°C° 0.7 mm 2 mps 746 mmHg 62%
13:00 +31°C° 0.7 mm 2 mps 746 mmHg 60%
14:00 +31°C° 0.7 mm 2 mps 746 mmHg 58%
15:00 +31°C° 0.6 mm 2 mps 746 mmHg 60%
16:00 +31°C° 0.6 mm 2 mps 745 mmHg 62%
17:00 +30°C° 0.6 mm 2 mps 745 mmHg 64%
18:00 +29°C° 0.5 mm 2 mps 745 mmHg 71%
19:00 +27°C° 0.5 mm 3 mps 745 mmHg 77%
20:00 +26°C° 0.5 mm 3 mps 744 mmHg 83%
21:00 +25°C° 0.6 mm 3 mps 745 mmHg 86%
22:00 +22°C° 0.6 mm 3 mps 745 mmHg 89%
23:00 +21°C° 0.6 mm 2 mps 745 mmHg 93%

25 June, Friday

Time Temperature Precipitation Wind Pressure Humidity
00:00 +21°C° 0.8 mm 2 mps 745 mmHg 94%
01:00 +20°C° 0.8 mm 2 mps 745 mmHg 96%
02:00 +20°C° 0.8 mm 2 mps 745 mmHg 97%
03:00 +20°C° 0.5 mm 2 mps 745 mmHg 97%
04:00 +19°C° 0.5 mm 3 mps 745 mmHg 97%
05:00 +19°C° 0.5 mm 3 mps 745 mmHg 97%
06:00 +19°C° 0.4 mm 3 mps 745 mmHg 93%
07:00 +20°C° 0.4 mm 3 mps 745 mmHg 90%
08:00 +21°C° 0.4 mm 2 mps 745 mmHg 86%
09:00 +23°C° 0.1 mm 2 mps 745 mmHg 82%
10:00 +24°C° 0.1 mm 2 mps 745 mmHg 78%
11:00 +25°C° 0.1 mm 2 mps 745 mmHg 74%
12:00 +26°C° 0 mm 2 mps 745 mmHg 71%
13:00 +26°C° 0 mm 2 mps 745 mmHg 69%
14:00 +27°C° 0 mm 3 mps 745 mmHg 66%
15:00 +27°C° 0 mm 2 mps 745 mmHg 66%
16:00 +27°C° 0 mm 2 mps 745 mmHg 66%
17:00 +27°C° 0 mm 2 mps 745 mmHg 66%
18:00 +26°C° 0.1 mm 2 mps 745 mmHg 71%
19:00 +25°C° 0.1 mm 2 mps 744 mmHg 77%
20:00 +22°C° 0.1 mm 3 mps 744 mmHg 82%
21:00 +21°C° 0.1 mm 3 mps 744 mmHg 86%
22:00 +20°C° 0.1 mm 3 mps 744 mmHg 89%
23:00 +19°C° 0.1 mm 3 mps 744 mmHg 92%
Show more